sat.trackr.live / text

‹ back to catalog

STARLINK-34244

NORAD 65351 · 2025-190A

PAYLOAD ACTIVE UNKNOWN

§ Identity

Operator
Country
US
Launch date
2025-08-28
Launch site
AFETR
Launch vehicle
Mass (kg)
RCS (m²)

Purposes: comms

External: N2YO · Heavens-Above · Gunter

§ Orbital elements

Epoch: 2026-05-24T19:10:09.795936Z

Period
93.85 min
Inclination
53.1587°
Eccentricity
0.0001571
Mean motion
15.34381820 rev/d
Perigee alt
461.7 km
Apogee alt
463.8 km
Semi-major
6,840.9 km
B*
1.6911e-4
RAAN
174.2748°
Arg perigee
72.5338°
Mean anomaly
287.5837°
Rev number
4,141

§ Raw data

STARLINK-342441 65351U 25190A   26144.79872449  .00005338  00000+0  16911-3 0  99932 65351  53.1587 174.2748 0001571  72.5338 287.5837 15.34381820 41411

JSON: /api/v1/satellites/65351 · /tle

For live sub-satellite position, see the globe view (requires WebGL).

§ Visibility from observer

Set your observer location to see the next 7 days of passes ≥ 10°. The values pass through the URL so the page stays shareable.

No JS? Fill the form by hand. The geolocation button needs JavaScript.